Date,TemperatureHighF,TemperatureAvgF,TemperatureLowF,DewpointHighF,DewpointAvgF,DewpointLowF,HumidityHigh,HumidityAvg,HumidityLow,PressureMaxIn,PressureMinIn,WindSpeedMaxMPH,WindSpeedAvgMPH,GustSpeedMaxMPH,PrecipitationSumIn
2013-1-1,42,31,27,38,29,26,98,95,77,30.27,30.09,3,0,3,0.16
2013-1-2,45,32,27,41,28,0,98,87,68,30.09,29.94,3,0,3,0.16
2013-1-3,45,32,25,35,26,22,98,81,51,29.97,29.85,7,0,7,0.16
2013-1-4,51,42,34,49,41,0,98,95,83,30.09,29.91,6,0,6,0.16
2013-1-5,45,40,34,45,39,0,98,96,89,29.97,29.85,6,0,6,0.16
2013-1-6,47,42,38,42,40,38,98,93,73,29.94,29.74,8,1,10,0.25
2013-1-7,50,47,40,48,44,39,98,90,74,29.91,29.59,19,3,19,0.21
2013-1-8,54,47,41,50,44,39,98,90,71,29.94,29.47,17,2,17,0.37
2013-1-9,50,41,36,49,39,33,98,93,82,29.74,29.41,13,1,13,0.91
2013-1-10,38,36,30,36,33,30,98,92,83,29.88,29.71,4,0,4,0.16
2013-1-11,36,29,24,34,28,24,98,96,81,30.12,29.44,5,0,5,2.74
2013-1-12,38,25,23,34,24,22,98,93,61,30.21,30.06,6,0,6,0.00
2013-1-13,36,27,20,32,24,0,98,89,70,30.30,30.18,2,0,3,0.00
2013-1-14,37,33,30,29,28,26,92,81,65,30.30,30.21,4,0,4,0.00
2013-1-15,45,34,28,38,30,27,98,87,53,30.47,30.30,5,0,5,0.00
2013-1-16,41,30,24,37,29,24,98,94,78,30.44,30.27,4,0,4,0.00
2013-1-17,36,31,27,35,30,26,98,98,98,30.27,30.03,3,0,3,0.00
2013-1-18,35,31,26,34,31,26,98,98,98,30.12,30.00,4,0,4,0.00
2013-1-19,33,31,30,32,31,29,98,98,98,30.18,30.06,3,0,4,0.00
2013-1-20,34,31,29,34,30,0,98,98,64,30.18,30.00,3,0,3,0.00
2013-1-21,34,30,28,33,30,27,98,98,98,30.03,29.88,3,0,3,0.00
2013-1-22,38,33,25,37,32,25,98,97,92,29.88,29.65,2,0,2,1.95
2013-1-23,43,39,34,42,38,34,98,96,87,29.91,29.59,8,1,8,0.16
2013-1-24,48,41,34,44,38,34,98,91,65,29.97,29.82,7,0,7,0.13
2013-1-25,51,45,40,50,44,39,98,98,94,29.82,29.71,6,0,6,2.44
2013-1-26,48,42,38,43,39,36,98,89,69,29.79,29.65,10,1,10,0.13
2013-1-27,43,40,38,40,38,37,98,95,79,29.82,29.74,9,1,9,0.33
2013-1-28,42,40,38,41,40,37,98,98,97,29.85,29.76,8,1,8,0.41
2013-1-29,48,44,41,47,44,40,98,98,95,30.12,29.85,12,1,12,3.81
2013-1-30,50,47,44,49,46,44,98,98,98,30.18,30.06,6,0,6,3.94
2013-1-31,50,47,46,49,46,44,98,96,82,30.18,30.06,7,1,7,0.21
2013-2-1,51,46,44,49,45,0,98,96,84,30.18,30.09,4,0,4,4.15
2013-2-2,44,40,38,43,40,37,98,98,95,30.15,30.00,5,0,5,0.00
2013-2-3,50,43,37,48,42,36,98,95,82,30.09,29.97,6,0,6,0.08
2013-2-4,52,46,43,45,43,40,98,89,65,29.97,29.65,6,1,6,0.00
2013-2-5,51,46,44,44,42,39,98,87,66,29.74,29.59,172,2,172,0.41
2013-2-6,52,45,42,42,40,35,98,84,53,29.85,29.56,172,1,172,0.13
2013-2-7,52,42,32,44,34,0,98,77,46,29.97,29.56,11,1,11,4.89
2013-2-8,45,37,30,41,34,0,98,87,67,30.09,29.94,4,0,227,0.00
2013-2-9,45,41,38,43,39,35,98,93,83,30.09,30.03,3,0,3,0.00
2013-2-10,48,41,37,42,37,31,98,86,59,30.18,30.06,6,0,6,0.00
2013-2-11,50,43,38,41,37,33,96,81,56,30.15,30.06,4,0,4,0.00
2013-2-12,50,47,42,48,44,39,98,92,80,30.18,30.06,12,1,12,0.04
2013-2-13,50,46,43,45,41,38,96,82,66,30.27,30.06,10,1,10,0.05
2013-2-14,52,46,34,45,42,0,97,85,70,30.36,30.24,7,0,7,0.04
2013-2-15,54,44,38,44,41,38,98,90,63,30.33,29.94,4,1,4,0.00
2013-2-16,53,44,34,45,39,33,100,84,51,29.97,29.88,13,2,13,5.06
2013-2-17,50,42,40,38,34,31,92,73,52,30.03,29.88,8,1,8,0.00
2013-2-18,49,41,35,41,35,31,98,81,52,29.91,29.53,5,0,5,0.04
2013-2-19,51,40,34,37,32,28,96,76,43,29.79,29.47,7,1,7,0.00
2013-2-20,48,37,34,38,34,30,95,89,55,29.82,29.76,7,0,7,3.15
2013-2-21,44,40,37,40,38,36,98,92,75,29.85,29.76,13,2,13,3.15
2013-2-22,44,42,39,42,38,32,97,87,73,29.82,29.47,14,3,14,3.15
2013-2-23,51,42,38,38,35,31,96,78,49,30.15,29.65,10,1,10,3.15
2013-2-24,50,44,39,37,34,0,100,69,50,30.15,29.74,12,2,12,5.72
2013-2-25,52,43,38,41,33,26,95,69,38,30.06,29.68,19,3,19,3.15
2013-2-26,51,44,38,34,30,26,81,59,39,30.15,29.94,8,1,8,3.15
2013-2-27,52,44,38,44,39,32,98,85,57,30.09,29.94,6,0,6,3.15
2013-2-28,54,47,42,52,46,42,98,96,87,30.09,29.94,8,1,13,6.30
2013-3-1,59,54,50,52,49,45,98,84,63,30.15,30.06,14,2,14,0.09
2013-3-2,59,49,37,47,44,37,98,83,53,30.06,29.82,12,1,12,0.41
2013-3-3,51,39,31,43,32,26,98,79,41,30.09,29.97,6,1,6,0.09
2013-3-4,55,39,27,36,27,20,98,67,33,30.09,29.68,15,1,15,0.09
2013-3-5,53,44,36,36,29,21,78,58,40,29.71,29.50,5,1,5,0.09
2013-3-6,46,41,37,41,38,34,98,91,79,29.68,29.35,10,1,10,0.58
2013-3-7,54,44,36,50,41,35,98,91,68,29.85,29.65,6,0,6,0.50
2013-3-8,54,41,34,43,36,33,98,84,48,30.00,29.82,7,1,7,0.09
2013-3-9,57,41,30,44,33,27,98,76,37,30.27,30.00,6,1,6,0.09
2013-3-10,47,41,33,42,38,0,97,88,79,30.30,30.18,4,0,4,0.09
2013-3-11,53,45,39,46,42,39,98,89,61,30.24,29.88,6,0,6,0.09
2013-3-12,55,53,47,50,47,42,98,80,61,29.94,29.82,17,3,17,0.09
2013-3-13,55,52,49,53,49,47,98,91,80,29.97,29.85,10,1,10,0.21
2013-3-14,57,51,48,54,48,43,98,92,71,29.94,29.79,6,1,229,0.09
2013-3-15,61,54,49,50,47,44,98,80,54,29.97,29.88,14,2,14,0.09
2013-3-16,51,47,40,46,40,31,91,77,60,29.91,29.68,11,2,11,8.33
2013-3-17,51,42,38,34,32,26,82,68,41,30.00,29.76,11,2,11,0.00
2013-3-18,55,44,34,40,32,28,84,65,37,30.03,29.88,10,2,11,0.00
2013-3-19,60,42,32,42,34,27,97,76,32,30.03,29.35,8,1,8,0.21
2013-3-20,50,46,40,50,41,29,98,82,61,29.82,29.14,13,3,13,0.46
2013-3-21,52,40,36,35,32,25,96,74,41,30.00,29.79,13,2,13,9.08
2013-3-22,47,38,30,36,30,24,98,76,42,30.18,29.97,9,1,9,0.04
2013-3-23,52,38,30,36,27,21,96,68,37,30.18,30.06,4,1,4,0.00
2013-3-24,57,41,28,34,27,24,91,63,34,30.09,29.88,7,0,7,0.00
2013-3-25,64,47,31,32,27,24,79,50,27,29.91,29.68,8,1,8,9.12
2013-3-26,63,51,43,38,34,28,72,52,34,29.79,29.71,8,1,8,0.00
2013-3-27,58,47,43,44,38,34,91,72,49,29.76,29.71,6,0,6,0.00
2013-3-28,62,50,41,51,43,39,98,78,48,29.94,29.74,115,1,115,0.00
2013-3-29,67,52,40,49,41,38,98,71,36,30.03,29.91,7,1,7,0.00
2013-3-30,70,52,34,47,39,0,98,66,33,30.06,29.82,8,1,8,0.00
2013-3-31,74,55,40,49,40,38,98,64,32,29.85,29.65,6,1,6,9.20
2013-4-1,66,54,45,48,44,40,94,70,42,29.94,29.71,6,1,6,0.00
2013-4-2,57,52,49,48,46,44,92,79,68,29.97,29.91,57,0,57,0.00
2013-4-3,65,54,44,48,43,38,97,69,42,29.97,29.71,6,1,6,0.00
2013-4-4,57,53,49,55,49,0,98,87,73,29.74,29.41,115,1,115,0.21
2013-4-5,58,52,48,52,49,0,100,90,70,29.65,29.47,13,2,13,0.75
2013-4-6,53,48,34,49,45,0,98,90,70,29.74,29.47,12,2,12,0.50
2013-4-7,47,43,40,47,42,40,98,98,97,29.68,29.23,6,1,6,0.45
2013-4-8,57,47,42,48,44,41,98,87,60,30.06,29.65,115,1,115,0.09
2013-4-9,58,50,43,48,42,37,98,76,48,30.12,30.00,115,0,115,0.00
2013-4-10,54,53,53,46,46,45,75,74,74,29.79,29.79,11,4,11,0.00
2013-4-11,54,48,41,47,40,36,89,76,60,30.12,29.94,8,1,8,0.16
2013-4-12,50,44,39,44,39,35,98,86,60,29.94,29.47,15,2,15,0.42
2013-4-13,47,42,38,42,37,32,98,82,67,29.82,29.56,10,2,10,0.41
2013-4-14,58,44,37,47,38,28,98,82,36,29.82,29.68,6,1,6,0.25
2013-4-15,58,44,36,46,38,33,98,81,41,29.97,29.71,6,1,6,0.04
2013-4-16,59,39,33,47,34,29,98,87,38,30.18,29.94,8,0,8,12.81
2013-4-17,66,49,34,41,34,27,97,62,27,30.24,30.15,8,1,8,0.00
2013-4-18,54,48,34,48,40,0,95,74,57,30.24,29.97,13,1,13,0.25
2013-4-19,57,51,48,55,50,47,98,96,90,29.97,29.82,13,2,13,0.58
2013-4-20,59,50,47,49,45,40,98,83,61,30.06,29.94,15,2,15,0.13
2013-4-21,56,48,40,47,40,36,88,74,52,30.15,30.00,10,1,10,1.00
2013-4-22,63,49,37,44,33,22,98,61,26,30.30,30.15,8,2,9,0.00
2013-4-23,66,49,34,36,30,0,86,52,26,30.21,30.00,10,1,10,0.00
2013-4-24,72,54,37,41,33,28,89,51,23,30.09,29.82,8,1,8,13.81
2013-4-25,74,57,40,39,35,30,78,47,25,29.91,29.82,8,1,8,13.81
2013-4-26,73,58,34,47,42,0,88,57,31,30.03,29.88,8,1,8,0.00
2013-4-27,58,55,51,47,39,31,82,57,38,30.00,29.94,14,2,14,0.12
2013-4-28,63,52,48,51,42,33,93,71,38,30.00,29.71,10,1,10,0.13
2013-4-29,57,46,39,48,43,33,98,89,51,29.97,29.68,8,1,10,1.12
2013-4-30,58,45,37,43,34,25,98,69,31,30.24,29.94,8,1,8,0.53
2013-5-1,68,50,32,38,31,28,92,55,24,30.36,30.21,7,1,7,0.53
2013-5-2,73,55,40,42,36,30,85,51,27,30.33,30.12,11,1,11,0.53
2013-5-3,72,57,42,44,39,33,83,54,33,30.18,30.00,9,2,9,0.53
2013-5-4,81,61,34,48,41,0,92,54,22,30.03,29.76,10,1,10,15.18
2013-5-5,86,66,47,47,41,36,83,47,20,29.79,29.53,10,1,10,0.53
2013-5-6,90,68,49,49,42,0,96,44,18,29.62,29.50,7,1,7,0.53
2013-5-7,77,63,52,50,47,40,84,58,35,29.79,29.59,8,2,8,0.53
2013-5-8,70,58,52,52,49,47,86,71,48,29.91,29.76,6,1,6,0.53
2013-5-9,74,58,49,55,50,47,98,80,40,30.00,29.88,6,1,6,0.53
2013-5-10,81,64,49,56,50,46,98,66,31,29.97,29.88,6,1,6,0.00
2013-5-11,85,69,57,54,47,40,76,48,29,29.94,29.76,6,1,6,0.59
2013-5-12,76,65,58,60,55,48,97,72,40,29.91,29.76,9,1,9,0.59
2013-5-13,68,57,47,60,52,41,98,84,58,29.97,29.71,11,1,11,0.59
2013-5-14,70,56,44,45,38,31,89,56,27,30.03,29.88,7,1,7,0.59
2013-5-15,69,54,43,50,42,36,94,68,36,29.91,29.79,8,1,8,0.59
2013-5-16,72,61,52,56,48,41,98,69,36,29.82,29.65,8,1,8,0.59
2013-5-17,63,57,52,54,49,44,97,77,52,29.85,29.71,10,1,10,0.59
2013-5-18,63,56,52,50,46,43,81,68,51,30.06,29.82,7,1,7,16.13
2013-5-19,66,57,50,50,48,44,92,73,48,30.18,30.06,4,0,4,0.00
2013-5-20,74,58,48,51,46,39,95,68,34,30.15,29.68,6,1,6,0.00
2013-5-21,64,52,46,52,44,38,95,73,45,29.68,29.56,10,1,10,0.33
2013-5-22,58,48,43,48,44,41,96,86,61,29.74,29.62,9,1,9,0.29
2013-5-23,62,50,34,49,45,0,98,84,47,29.79,29.71,7,0,7,16.87
2013-5-24,69,54,46,50,46,39,98,77,36,29.85,29.74,6,0,6,0.00
2013-5-25,69,54,49,48,46,40,93,75,38,29.85,29.76,5,1,5,0.00
2013-5-26,70,55,50,54,49,43,95,82,42,30.12,29.71,8,0,8,0.83
2013-5-27,62,56,50,58,53,49,98,91,75,29.76,29.47,5,0,5,17.33
2013-5-28,66,57,52,54,51,45,98,81,52,29.79,29.53,6,1,8,0.04
2013-5-29,63,55,50,54,48,42,98,81,50,29.76,29.47,10,1,10,0.13
2013-5-30,67,56,49,47,44,39,83,66,41,30.03,29.76,10,2,10,0.04
2013-5-31,68,58,50,48,44,38,85,61,37,30.15,30.03,5,0,5,0.04
2013-6-1,78,60,49,50,44,39,85,59,28,30.03,29.82,7,1,7,0.04
2013-6-2,73,61,54,50,46,42,84,58,36,29.91,29.82,6,1,6,0.04
2013-6-3,74,62,50,52,47,43,89,62,37,29.91,29.82,6,1,6,0.04
2013-6-4,85,66,50,54,48,44,95,58,29,29.94,29.79,7,1,7,0.04
2013-6-5,82,63,52,53,48,44,82,62,32,29.88,29.79,7,1,7,17.50
2013-6-6,83,67,53,55,48,38,91,56,27,29.85,29.76,6,1,6,0.04
2013-6-7,75,63,57,51,44,37,70,51,32,29.94,29.79,6,1,7,0.04
2013-6-8,73,61,54,49,46,44,71,58,42,29.97,29.88,5,1,5,17.50
2013-6-9,73,60,52,47,44,39,76,56,34,29.91,29.79,7,1,7,0.04
2013-6-10,75,61,34,46,42,0,77,52,32,29.85,29.65,8,1,8,0.04
2013-6-11,75,60,51,46,41,37,72,51,31,29.91,29.71,9,2,229,0.04
2013-6-12,72,59,53,48,44,40,81,58,35,29.94,29.88,10,1,10,0.04
2013-6-13,74,62,52,56,48,43,93,63,38,30.00,29.85,129,1,129,0.04
2013-6-14,71,60,53,48,46,43,76,61,41,30.03,29.82,7,1,7,17.54
2013-6-15,81,64,47,53,47,44,95,59,32,29.85,29.68,5,1,5,0.04
2013-6-16,84,63,57,60,50,46,81,63,31,29.88,29.76,6,1,6,17.54
2013-6-17,84,67,56,54,49,44,80,57,30,29.88,29.65,9,1,9,0.04
2013-6-18,77,64,56,55,48,39,92,60,32,29.79,29.65,6,1,6,0.04
2013-6-19,72,60,54,53,48,0,82,65,39,29.82,29.71,10,1,10,17.54
2013-6-20,60,56,52,55,51,47,98,82,70,29.91,29.71,10,1,10,0.74
2013-6-21,70,60,52,58,52,45,98,78,46,29.94,29.88,4,0,4,0.09
2013-6-22,81,65,50,57,50,45,98,64,31,29.94,29.62,7,1,7,0.04
2013-6-23,71,65,60,64,58,51,97,78,56,29.62,29.38,6,0,6,0.12
2013-6-24,66,60,57,60,58,54,98,94,67,29.47,29.35,10,1,10,0.17
2013-6-25,80,62,56,63,56,48,98,82,36,29.68,29.47,7,0,7,0.50
2013-6-26,80,65,56,65,57,51,98,78,41,29.85,29.62,8,0,8,0.04
2013-6-27,74,65,59,65,61,57,98,87,62,30.00,29.82,3,0,3,0.08
2013-6-28,93,74,62,66,61,54,98,71,28,30.00,29.82,7,1,7,0.17
2013-6-29,90,75,64,63,58,0,90,60,32,29.91,29.74,5,1,5,0.17
2013-6-30,99,86,60,65,60,55,95,46,27,29.82,29.59,6,1,6,0.17
2013-7-1,93,74,64,62,59,55,85,64,30,29.82,29.65,6,0,6,0.00
2013-7-2,88,73,62,60,53,43,83,54,27,29.88,29.79,8,1,8,0.00
2013-7-3,84,69,60,51,46,40,64,44,31,29.94,29.79,8,1,8,0.00
2013-7-4,80,64,58,52,49,45,75,58,34,29.91,29.76,6,1,6,0.00
2013-7-5,65,60,57,54,52,0,80,76,67,29.79,29.76,8,1,8,0.00
2013-7-6,85,68,56,56,52,47,91,60,32,29.74,29.62,4,1,4,0.00
2013-7-7,83,68,57,57,53,49,86,61,37,29.74,29.65,8,1,8,0.00
2013-7-8,82,67,58,56,53,50,81,63,36,29.85,29.71,6,1,6,0.00
2013-7-9,90,72,57,59,52,44,92,55,28,29.88,29.76,6,1,6,0.00
2013-7-10,63,63,63,47,47,47,57,56,56,29.79,29.79,1,0,1,0.00
2013-7-14,73,66,62,40,38,36,42,35,30,29.82,29.76,0,0,0,0.00
2013-7-15,84,70,53,52,46,39,75,46,28,29.82,29.65,6,0,6,0.00
2013-7-16,92,72,55,57,49,42,74,48,23,29.68,29.53,0,0,0,19.28
2013-7-17,73,66,34,58,54,0,83,66,51,29.97,29.65,5,0,5,0.00
2013-7-18,82,68,58,56,54,52,84,63,36,30.00,29.88,0,0,0,0.00
2013-7-19,85,68,55,58,55,53,94,65,36,29.94,29.79,0,0,0,0.00
2013-7-20,81,67,57,59,55,52,93,68,40,29.88,29.71,0,0,0,0.00
2013-7-21,83,68,59,58,55,52,87,67,39,29.76,29.65,0,0,0,0.00
2013-7-30,66,64,63,53,52,52,68,65,61,29.88,29.85,0,0,0,0.00
2013-7-31,73,64,34,60,56,0,89,75,56,29.91,29.79,0,0,0,0.00
2013-8-7,71,68,66,50,49,48,57,51,45,29.79,29.74,0,0,0,0.00
2013-8-8,82,70,59,58,54,50,82,58,38,29.82,29.71,0,0,0,0.00
2013-8-9,85,70,57,57,53,50,88,58,33,29.74,29.59,0,0,0,0.00
2013-8-10,82,71,62,63,59,57,97,69,45,29.79,29.65,0,0,0,0.13
2013-8-11,72,64,60,57,54,52,79,71,55,29.85,29.76,4,0,5,0.00